Regional Weather Roundup
Issued by NWS

Home | Current Version | Previous Version | Graphics & Text | Print | Product List | Glossary Off
Versions: 1 2 3 4 5 6 7 8 9 10 11 12 13 14 15 16 17 18 19 20 21 22 23 24 25 26 27 28 29 30 31 32 33 34 35 36 37 38 39 40 41 42 43 44 45 46 47 48 49 50

000
ASUS43 KDMX 302208
RWRIA

WEATHER ROUNDUP FOR IOWA
NATIONAL WEATHER SERVICE DES MOINES IA
500 PM CDT SAT APR 30 2016

NOTE: "FAIR" INDICATES FEW OR NO CLOUDS BELOW 12,000 FEET WITH NO
SIGNIFICANT WEATHER AND/OR OBSTRUCTIONS TO VISIBILITY.

* - THESE STATIONS ARE NOT NWS STATIONS...THUS NOT UNDER NWS
QUALITY CONTROL.  THEY ALSO DO NOT REPORT WEATHER SUCH
AS PRECIPITATION OR FOG.

IAZ001>003-012>014-020>022-031>034-043>046-302300-
   NORTHWEST IOWA

CITY           SKY/WX    TMP DP  RH WIND       PRES   REMARKS
CARROLL *      CLOUDY    48  46  93 E24       29.82S
CHEROKEE *     CLOUDY    45  43  93 E23G33    29.88R
DENISON *      CLOUDY    46  46 100 E21G29    29.80R FOG
LE MARS *      CLOUDY    46  43  87 E16G28    29.88R
ORANGE CITY *  CLOUDY    45  43  93 E17G29    29.89R
SHELDON *      CLOUDY    45  43  93 E28G36    29.89R
SIOUX CITY     LGT RAIN  48  43  82 E24G31    29.84R
SPENCER        CLOUDY    44  40  85 E29G44    29.92R
STORM LAKE *   CLOUDY    45  41  87 E30G47    29.86R
$$

IAZ055>058-069>071-079>083-090>094-302300-
   SOUTHWEST IOWA

CITY           SKY/WX    TMP DP  RH WIND       PRES   REMARKS
ATLANTIC *     PTSUNNY   50  48  93 NE12G21   29.79R FOG
AUDUBON *      PTSUNNY   48  46  93 E13G18    29.81R FOG
CLARINDA *       N/A    N/A N/A N/A MISG        N/A
COUNCIL BLFS * CLOUDY    50  50 100 E9G16     29.77S FOG
CRESTON *      CLOUDY    50  50 100 NE14      29.78R FOG
HARLAN  *      CLOUDY    48  46  93 E16G24    29.82R FOG
LAMONI         CLOUDY    55  53  93 NE9       29.75R
RED OAK *      CLOUDY    52  50  93 NE15      29.77R FOG
SHENANDOAH *   CLOUDY    55  55 100 NE10      29.75S
$$

IAZ047>049-059>061-072>074-084-302300-
   CENTRAL IOWA

CITY           SKY/WX    TMP DP  RH WIND       PRES   REMARKS
AMES           CLOUDY    49  48  97 E13G24    29.83R
ANKENY *       PTSUNNY   50  50 100 E15G23    29.82R FOG
BOONE *        CLOUDY    48  46  93 E26G35    29.83R
CHARITON *     CLOUDY    52  52 100 NE12      29.78R FOG
DES MOINES     LGT RAIN  51  47  86 E18       29.81R FOG
GRINNELL*      RAIN      48  46  93 NE21G29   29.83R
KNOXVILLE *    CLOUDY    50  48  93 E16       29.78R FOG
MARSHALLTOWN   CLOUDY    48  45  89 E28G37    29.84R
NEWTON *       CLOUDY    48  48 100 NE20G28   29.82R FOG
PELLA *        CLOUDY    50  48  93 NE10G18   29.81R FOG
$$

IAZ004>006-015-016-023>025-035-036-302300-
   NORTH CENTRAL IOWA

CITY           SKY/WX    TMP DP  RH WIND       PRES   REMARKS
ALGONA *       DRIZZLE   45  43  93 NE23      29.93R
CLARION *      CLOUDY    46  45  93 E22G29    29.89S
ESTHERVILLE    LGT RAIN  43  41  93 NE32G41   29.93R
FORT DODGE *   CLOUDY    46  41  81 NE18G24   29.89R
MASON CITY     LGT RAIN  44  42  93 NE26G33   29.93R
FOREST CITY *  DRIZZLE   43  41  93 NE18G28   29.93R
WEBSTER CITY * CLOUDY    48  45  87 E23G29    29.85R
IOWA FALLS *   LGT RAIN  48  45  87 E22G35    29.86F
$$

IAZ007>011-017>019-026>030-037>042-050>054-066-302300-
   NORTHEAST IOWA

CITY           SKY/WX    TMP DP  RH WIND       PRES   REMARKS
CEDAR RAPIDS   CLOUDY    48  46  93 E21G29    29.84R FOG
CHARLES CITY * CLOUDY    45  45 100 E26G36    29.92R
CLINTON *      LGT RAIN  46  44  93 E20G30    29.86R
DECORAH *      RAIN      45  45 100 NE10G21   29.95F
DUBUQUE        LGT RAIN  45  42  89 NE24G30   29.90S FOG
MONTICELLO *   CLOUDY    46  45  93 E18       29.88R FOG
OELWEIN *      CLOUDY    46  46 100 NE22G30   29.91R FOG
WATERLOO       CLOUDY    46  44  93 E20       29.90R FOG
$$

IAZ064-065-067-068-078-302300-
   EAST CENTRAL IOWA

CITY           SKY/WX    TMP DP  RH WIND       PRES   REMARKS
DAVENPORT      LGT RAIN  47  44  90 E18G28    29.86R FOG
IOWA CITY      LGT RAIN  48  46  93 NE18G26   29.85R FOG
MT. PLEASANT * DRIZZLE   55  55 100 NE12G17   29.78R
MUSCATINE *    PTSUNNY   50  48  93 NE13      29.83R FOG
QUAD CITIES    LGT RAIN  49  45  86 E20       29.83R FOG
$$

IAZ062-063-075>077-085>089-095>099-302300-
   SOUTHEAST IOWA

CITY           SKY/WX    TMP DP  RH WIND       PRES   REMARKS
BURLINGTON     CLOUDY    57  57 100 NE7       29.76R FOG
FAIRFIELD *    CLOUDY    52  50  93 NE16      29.79R
FORT MADISON * CLOUDY    57  57 100 NE7       29.76R
KEOKUK *       CLOUDY    63  61  94 NE6       29.73S
OSKALOOSA *    CLOUDY    50  48  93 E23G29    29.80R
OTTUMWA        CLOUDY    51  49  92 NE15      29.78R
WASHINGTON *   PTSUNNY   50  50 100 NE16      29.82R FOG
$$

ABBREVIATIONS USED IN REMARKS
   TC - TEMPERATURES IN CELSIUS
  WCI - WIND CHILL INDEX
   HX - HEAT INDEX
  VSB - VISIBILITY
$$





USA.gov is the U.S. government's official web portal to all federal, state and local government web resources and services.